Location: Fremont
(37.5480°N, 121.9880°W)
Time: 21:54:55
(UTC-07:00)

Daily predictions for brighter satellites

Satellite Brightness Start Highest point End
(mag) Time Altitude Azimuth Time Altitude Azimuth Time Altitude Azimuth
CZ-3C R/B 4.3 19:57:45 10° SW 20:45:54 29° S 20:55:14 10° SE
CZ-4C R/B 4.4 20:44:17 10° NW 20:50:47 34° WSW 20:57:40 10° S
BREEZE-M DEB (TANK) 3.1 20:52:35 10° WSW 20:55:20 34° NW 20:57:15 10° NE
Cosmos 1709 Rocket 4.3 20:52:58 10° SSW 20:59:03 74° W 21:05:14 10° N
NOSS 2-2 (E) 3.8 20:58:34 10° S 21:02:28 45° ESE 21:06:51 10° NE
SPOT 5 4.3 20:59:01 10° ESE 21:03:15 26° ENE 21:07:34 10° NNE
Cosmos 1869 Rocket 4.4 20:59:43 10° SSW 21:04:02 55° W 21:08:21 10° N
Cosmos 1356 Rocket 3.8 21:00:54 10° SSE 21:04:53 45° E 21:08:57 10° NNE
H-2A R/B 3.0 21:01:32 10° SE 21:05:23 31° ENE 21:09:10 10° N
Cosmos 2074 Rocket 4.2 20:59:51 10° SSE 21:05:55 53° E 21:12:00 10° NNE
Cosmos 389 Rocket 4.1 21:03:31 10° NNW 21:06:44 36° W 21:09:56 10° SSW
COSMOS 2406 4.0 21:02:53 10° N 21:08:11 37° ENE 21:13:05 12° SE
ERS-1 Rocket 3.1 21:03:16 10° SSE 21:08:12 58° ENE 21:13:10 10° N
Resurs 01 Rocket 4.4 21:08:18 10° SW 21:11:07 17° W 21:13:57 10° NW
ALOS 3.3 21:08:06 10° S 21:12:36 47° W 21:17:08 10° NNW
PSLV R/B 4.0 21:12:40 10° WNW 21:16:01 50° N 21:19:27 10° E
BREEZE-M DEB (TANK) 3.6 21:16:19 10° W 21:18:32 40° NNW 21:22:33 10° NE
Abrixas rocket 2.3 21:16:53 10° NW 21:20:19 78° NNE 21:22:48 17° ESE
CZ-4 DEB 3.3 21:18:17 10° S 21:21:25 59° W 21:24:33 10° NNW
ATLAS 5 CENTAUR R/B 2.9 21:17:33 10° NNW 21:23:25 49° NE 21:28:29 15° ESE
Cosmos 909 Rocket 4.2 21:17:37 10° SSW 21:23:59 81° ESE 21:31:33 10° NNE
Sich 1 Rocket 4.4 21:20:05 10° SSE 21:24:10 34° E 21:28:19 10° NNE
Cosmos 2278 Rocket 3.5 21:25:14 15° SE 21:27:59 20° E 21:32:02 10° NE
Okean 1-7 4.2 21:24:10 10° NNW 21:28:14 43° W 21:32:19 10° SSW
Cosmos 1844 4.4 21:25:08 10° SSE 21:30:13 34° ESE 21:35:23 10° NE
Cosmos 1825 3.7 21:29:25 17° ESE 21:30:17 18° E 21:32:58 10° NE
CZ-3A R/B 4.3 21:09:59 10° W 21:31:10 33° SSW 21:35:12 15° SSE
CZ-4B R/B 4.5 21:28:38 10° NE 21:32:42 25° E 21:34:50 19° SE
OPS 6432 4.2 21:29:14 10° SSW 21:32:53 75° ESE 21:36:01 10° NE
Cosmos 1340 Rocket 3.8 21:29:31 10° SSW 21:33:21 48° WNW 21:37:16 10° N
Cosmos 1674 Rocket 3.8 21:31:44 10° N 21:36:07 52° E 21:39:08 19° SSE
Cosmos 1939 Rocket 2.7 21:33:27 13° SSE 21:36:48 87° E 21:40:43 10° NNW
Cosmos 2056 Rocket 3.4 21:33:28 10° SSW 21:38:39 84° ESE 21:43:48 10° NNE
USA 234 3.7 21:33:50 10° ENE 21:39:44 35° SE 21:45:35 10° S
Cosmos 1371 Rocket 4.4 21:35:21 10° SSW 21:40:39 68° WNW 21:45:56 10° NNE
Cosmos 1844 Rocket 2.7 21:35:34 10° S 21:41:06 58° ESE 21:46:38 10° NNE
Cosmos 1782 2.9 21:37:52 10° N 21:41:51 58° E 21:44:17 22° SSE
Meteor 1-27 Rocket 4.1 21:40:37 10° N 21:45:58 45° ENE 21:49:08 22° SE
Coronas F rocket 2.9 21:43:52 10° SSW 21:46:19 35° W 21:48:48 10° N
Cosmos 2082 Rocket 4.5 21:47:17 10° NE 21:48:13 10° NE 21:49:09 10° ENE
SL-27 R/B 2.8 21:45:07 10° N 21:48:43 51° ENE 21:50:05 31° SE
YAOGAN 6 3.1 21:49:06 30° ESE 21:50:12 39° ENE 21:53:30 10° N
Cosmos 1408 3.4 21:49:55 29° ESE 21:50:35 31° E 21:53:51 10° NNE
Atlas Centaur 2 2.1 21:51:26 10° SW 21:54:30 27° S 21:54:40 27° S
COS B Rocket 3.3 21:51:56 10° N 21:56:07 62° E 21:57:55 30° SSE
SL-8 R/B 4.3 21:53:20 10° WSW 21:58:06 59° NNW 22:02:51 10° NE
BREEZE-M DEB 4.5 21:54:35 10° SW 21:59:17 61° SE 22:01:14 21° ENE
CZ-4 R/B 4.5 21:55:35 10° NNE 21:59:48 33° E 22:00:45 30° ESE
MetOp-A 4.1 21:57:43 23° SSE 22:01:05 75° ENE 22:06:27 10° N
Cosmos 1606 2.8 21:59:27 10° N 22:03:21 61° E 22:04:36 39° SE
Cosmos 1975 Rocket 3.9 21:59:55 10° NNE 22:03:47 31° ENE 22:04:34 29° E
Cosmos 2154 Rocket 3.9 22:02:29 11° S 22:08:26 82° E 22:14:40 10° N
Okean 3 3.9 22:05:49 10° N 22:09:56 44° E 22:10:48 38° ESE
BREEZE-M DEB (TANK) 3.1 22:07:57 10° WNW 22:10:07 40° SSW 22:10:44 36° S
Cosmos 1908 Rocket 3.5 22:08:09 21° S 22:11:02 89° WNW 22:15:28 10° N
Cosmos 1242 Rocket 4.1 22:09:00 10° NNE 22:11:41 23° ENE 22:11:41 23° ENE
CENTAUR R/B 3.4 22:04:18 10° NW 22:12:10 64° WSW 22:17:53 22° SSE
NOAA 11 4.4 22:10:39 32° SE 22:13:00 55° ENE 22:18:22 10° N
USA 245 2.9 22:13:16 54° ENE 22:13:16 54° ENE 22:16:34 10° N
CZ-4 SHROUD 3.2 22:13:31 57° SSW 22:14:00 72° WSW 22:17:06 10° NNW
H-2A R/B 4.4 22:09:39 10° WSW 22:14:46 48° S 22:50:03 10° ESE
H-2A R/B 4.4 22:09:39 10° WSW 22:14:47 48° S 22:50:03 10° ESE
H-2A R/B 4.4 22:09:40 10° WSW 22:14:47 48° S 22:50:03 10° ESE
STPSAT 2 (USA 217) 4.4 22:12:25 17° SSW 22:15:52 81° ESE 22:20:22 10° NNE
Envisat 4.0 22:14:22 14° SSW 22:18:29 43° W 22:23:19 10° NNW
H-2A R/B 3.1 22:17:20 28° E 22:18:51 33° ENE 22:23:35 10° N
Cosmos 1378 Rocket 3.4 22:16:43 10° N 22:21:03 82° E 22:22:15 47° SSE
TIMED 4.5 22:19:38 20° SSW 22:22:35 83° WNW 22:26:59 10° NNE
ERBS 2.4 22:19:55 10° NW 22:23:21 64° SW 22:23:30 62° SW
Cosmos 1420 Rocket 4.2 22:26:29 43° SE 22:27:29 49° ESE 22:32:31 10° NNE
Cosmos 1295 Rocket 4.5 22:27:15 32° SSE 22:30:19 68° E 22:36:34 10° NNE
SPOT 1/Viking Rocket 3.5 22:31:45 39° S 22:33:45 81° WSW 22:38:59 10° NNW
Landsat 7 3.9 22:39:28 53° ESE 22:40:06 59° ENE 22:44:48 10° N
Cosmos 407 Rocket 4.0 22:35:11 10° NNW 22:40:20 56° WSW 22:42:19 35° SSW
Cosmos 1238 Rocket 2.8 22:37:31 10° NNW 22:40:29 56° W 22:40:29 56° W
SPOT 5 4.2 22:37:51 19° SSW 22:41:02 37° W 22:45:58 10° NNW
H-2A R/B 4.3 22:38:22 11° SW 22:41:24 20° W 22:44:36 10° NW
Cosmos 489 Rocket 4.5 22:35:36 10° NNW 22:41:46 66° ENE 22:43:34 46° SE
Cosmos 1452 Rocket 4.0 22:36:58 11° SSW 22:41:58 61° WNW 22:47:12 10° N
Cosmos 2366 rocket 4.3 22:40:48 42° SE 22:42:07 49° E 22:48:08 10° NNE
Meteor 1-14 Rocket 4.3 22:42:37 49° SE 22:43:47 59° E 22:49:19 10° NNE
Cosmos 2084 3.2 22:45:10 78° NNW 22:45:10 78° NNW 22:48:51 10° NNE
Spot 4 4.5 22:52:37 41° ENE 22:52:44 41° ENE 22:57:17 10° N
Terra 1.9 22:55:45 59° E 22:55:52 59° ENE 23:00:33 10° N
Cosmos 614 Rocket 4.3 22:51:08 10° N 22:56:02 46° ENE 22:56:16 46° ENE
Cosmos 1140 Rocket 3.3 22:52:00 10° NNW 22:57:10 76° ENE 22:57:38 69° ESE
DELTA 2 DEB (DPAF) 4.0 22:58:19 87° S 22:58:24 89° W 23:02:54 10° NNW
Okean 2 Rocket 3.7 22:57:26 43° SW 22:58:29 53° W 23:02:49 10° N
ARGOS 3.7 23:01:36 38° SSW 23:03:12 50° W 23:08:25 10° NNW
Cosmos 2218 Rocket 3.9 23:02:10 49° S 23:04:05 86° E 23:10:32 10° N
DMSP B5D2-2 3.9 22:59:23 10° NNE 23:04:37 76° ESE 23:04:56 73° SE
CZ-4C R/B 3.8 23:06:05 57° NW 23:06:05 57° NW 23:09:22 10° NNW
Cosmos 1825 4.3 23:04:18 19° WSW 23:05:44 23° WNW 23:08:52 10° NNW
ATLAS 5 CENTAUR R/B 3.8 23:02:45 10° NW 23:07:58 29° WSW 23:10:03 24° SW
SL-08 R/B 4.5 23:08:38 50° S 23:10:30 87° W 23:17:00 10° N
Intercosmos 25 4.5 23:11:19 35° W 23:11:29 36° W 23:14:36 10° NNW
Cosmos 2278 Rocket 3.0 23:06:57 14° SW 23:11:37 50° WNW 23:17:09 10° NNE
Cosmos 1850 Rocket 3.9 23:12:34 10° NNW 23:17:54 87° ENE 23:18:00 86° ESE
Cosmos 1833 Rocket 3.3 23:15:07 10° N 23:20:27 43° ENE 23:20:41 42° ENE
USA 234 3.7 23:16:29 10° NE 23:22:53 60° NW 23:29:16 10° WSW
COSMOS 2487 4.4 23:19:39 10° NW 23:21:53 27° WNW 23:21:53 27° WNW
Cosmos 1727 Rocket 3.8 23:18:06 10° N 23:24:18 83° E 23:24:55 73° SSE
IGS 5A 4.4 23:30:58 46° NW 23:30:58 46° NW 23:34:09 10° NNW
Cosmos 2082 Rocket 2.2 23:27:40 10° NNW 23:33:18 70° ENE 23:33:18 70° ENE
Timation 2 Rocket 3.8 23:29:03 10° NNW 23:35:00 69° WSW 23:35:17 68° SW
Cosmos 1741 Rocket 4.2 23:30:40 10° NNW 23:35:33 64° W 23:35:33 64° W
Cosmos 2297 4.2 23:40:40 45° WSW 23:42:01 56° WNW 23:47:40 10° NNE
